GFSGL_850_rhum_105.txt.gz
RH
89 80 76 72 75 91 85 82 82 81 74 87 91 97 88 79 80 99 100 100 100 99 100 99 95 90 88 87 81 68 55 59 79 61 84 74 79 78 72 74 71 72 73
98 100 90 76 85 99 91 86 84 84 79 99 99 100 96 86 80 100 100 98 99 95 91 90 93 91 96 84 79 71 73 66 72 80 78 75 72 71 73 76 75 78 78
99 100 96 88 100 94 93 89 86 84 91 97 100 100 100 100 84 89 93 90 89 86 87 89 91 94 93 88 88 86 82 75 79 79 70 69 60 64 74 64 53 55 66
100 100 99 98 93 100 96 90 86 88 90 92 100 100 100 100 98 98 98 98 91 92 92 94 96 95 96 96 92 93 93 90 89 91 81 78 82 74 72 71 70 86 83
100 100 100 100 100 100 98 95 90 95 97 94 87 88 94 100 100 100 98 100 99 100 100 100 100 100 100 100 99 99 96 93 91 91 91 82 79 83 80 87 99 99 99
100 100 100 100 100 100 99 97 100 100 100 100 99 99 100 100 100 100 100 99 100 100 100 100 100 100 100 100 100 100 100 99 91 80 79 77 73 97 99 100 100 99 97
97 98 100 100 100 100 100 100 100 100 100 100 100 100 99 98 100 100 100 100 100 100 99 100 100 99 100 98 99 99 100 99 100 99 89 95 100 100 100 100 100 100 100
93 97 99 100 100 100 100 100 100 100 100 100 100 100 100 100 100 100 100 100 100 100 100 100 100 100 100 100 100 100 100 100 100 100 100 100 100 100 100 100 100 100 100
99 98 95 100 100 100 100 100 100 100 100 100 100 100 100 100 100 100 100 100 100 100 100 100 100 100 100 100 100 100 100 100 100 100 100 99 100 100 99 97 99 100 100
98 100 99 99 100 100 98 99 100 99 98 100 100 99 100 100 100 100 100 100 100 100 100 100 100 100 100 100 100 100 100 100 100 99 100 100 98 100 98 95 90 89 88
100 99 98 99 99 100 99 99 100 100 99 98 98 98 97 100 100 100 100 100 100 99 98 99 100 100 98 95 98 100 100 100 100 100 100 99 98 93 85 80 76 74 73
96 97 98 100 99 99 99 99 99 99 97 98 98 100 100 98 100 100 98 98 100 100 99 98 98 100 93 90 97 100 100 100 100 100 98 95 90 81 74 70 68 67 67
92 96 98 98 96 95 98 98 98 98 98 98 98 98 98 97 99 98 99 100 99 96 100 94 94 94 84 96 100 100 100 100 100 94 85 80 76 76 74 74 71 68 68
90 87 92 97 99 99 95 94 97 97 97 98 98 97 96 95 97 98 97 98 100 92 80 83 87 88 93 96 95 94 92 90 85 83 85 82 77 73 69 68 65 62 54
100 100 93 87 86 90 92 95 93 96 98 95 96 96 96 95 95 96 96 96 93 90 87 85 86 86 86 88 91 92 93 94 88 87 81 75 65 57 48 45 44 40 31
95 98 100 98 96 92 87 86 95 96 95 95 96 92 94 97 98 96 98 97 98 98 92 93 94 91 85 83 78 76 77 79 80 77 69 64 54 50 46 46 46 42 45
100 100 100 100 98 100 96 90 87 95 95 93 92 91 92 93 94 92 89 85 87 89 78 81 80 79 78 77 71 63 56 50 44 40 41 45 46 36 30 38 62 59 57
100 100 100 100 100 99 98 98 96 90 88 90 91 94 96 96 95 93 93 90 85 82 80 79 75 70 59 48 46 43 44 36 32 39 48 54 59 59 55 54 40 50 60
100 100 99 98 98 98 98 98 97 96 93 92 94 90 89 90 92 90 87 76 67 62 66 64 66 60 60 61 50 47 49 44 43 46 54 58 58 60 55 55 61 61 58
99 98 98 97 97 98 98 98 95 90 76 74 94 88 71 62 61 66 64 60 57 59 63 62 63 64 65 63 66 64 55 51 42 34 38 44 62 66 62 69 67 60 61
100 98 95 96 98 98 98 98 95 90 76 39 64 81 68 48 47 47 52 58 56 54 50 48 49 48 43 41 37 30 30 28 30 40 46 48 53 75 82 83 88 92 80
99 100 100 93 89 100 97 97 100 95 95 87 78 77 83 69 62 52 47 51 52 53 44 44 38 32 27 27 28 30 28 26 28 27 36 49 54 78 94 90 86 88 80
96 99 100 99 99 100 96 100 98 97 99 100 97 92 87 82 80 65 47 38 43 40 33 30 30 27 24 28 32 30 27 26 27 28 30 33 35 45 61 90 87 91 92
97 100 100 92 100 99 99 96 96 100 100 100 100 100 96 89 75 75 69 52 40 34 28 29 38 38 27 27 29 29 31 31 32 34 35 35 37 37 36 48 55 80 82
97 100 100 100 100 100 100 100 100 100 100 100 100 100 100 100 96 78 70 63 51 44 34 32 34 31 30 32 33 32 34 37 38 37 36 36 36 38 39 45 60 79 87
97 99 100 100 100 100 100 100 100 100 100 100 100 100 100 100 100 90 80 71 64 46 38 34 38 35 34 31 33 35 37 40 42 43 42 42 44 45 45 45 50 53 78

GFSGL_850_rhum_108.txt.gz
RH
100 87 73 97 84 75 70 74 86 88 80 86 85 68 83 92 89 99 100 100 100 100 100 100 100 100 98 91 97 95 87 73 65 66 74 72 75 69 65 64 62 65 70
100 100 100 100 100 89 78 76 90 94 79 84 85 67 85 98 88 100 100 100 100 100 99 100 100 100 100 91 90 85 92 85 69 74 65 67 69 74 80 70 69 69 68
100 99 99 99 92 86 84 79 91 91 88 86 80 87 97 99 95 97 99 99 99 100 100 100 99 99 100 100 90 83 90 94 92 79 67 68 74 83 84 74 63 64 82
100 100 100 100 98 99 99 94 94 95 82 81 85 98 98 100 98 98 100 100 100 100 100 100 92 93 90 89 88 95 93 90 82 80 76 78 82 80 77 74 78 75 71
100 100 99 100 100 99 100 98 100 97 88 82 86 92 100 100 100 100 100 100 100 98 95 95 93 96 97 99 100 100 99 100 96 99 95 89 91 94 88 77 71 70 84
96 96 99 99 100 100 99 100 100 100 100 85 98 97 100 99 100 100 100 99 100 100 97 97 100 100 100 100 100 100 100 100 100 100 99 100 96 93 89 79 76 90 99
95 93 92 99 100 100 100 100 100 99 99 100 96 99 99 94 94 100 100 100 100 99 100 100 100 99 99 100 100 99 100 100 98 96 100 96 88 82 80 82 96 100 100
98 100 98 93 94 99 99 99 100 100 100 100 100 99 100 99 91 97 100 100 100 100 100 100 99 100 100 99 97 98 100 100 99 99 97 96 99 99 96 99 100 99 99
94 98 100 100 98 96 100 98 98 100 100 100 100 100 100 99 97 99 100 100 100 100 100 100 100 100 100 100 100 100 100 100 100 100 100 100 100 100 100 100 100 100 100
99 98 98 100 99 100 98 100 98 100 99 94 100 100 100 100 100 100 99 100 100 100 100 100 100 100 100 100 100 99 100 100 100 100 100 100 100 100 100 98 98 100 100
99 99 98 96 99 99 99 100 100 100 100 98 99 100 99 100 100 99 99 100 100 100 99 100 100 100 100 99 98 100 100 100 100 99 100 100 100 99 100 96 90 88 88
98 98 98 100 96 98 98 99 100 98 99 100 98 99 99 99 100 100 100 100 100 99 100 98 98 100 100 100 100 98 99 99 100 100 99 98 98 94 87 78 72 68 67
88 96 96 98 97 98 98 99 97 96 98 98 98 97 99 99 97 99 99 99 99 100 99 99 98 99 99 100 99 100 99 98 100 98 98 95 86 78 70 67 65 64 63
92 85 85 90 94 96 95 96 97 96 97 97 96 97 96 96 97 96 97 98 98 97 98 100 96 96 97 97 98 97 94 97 95 87 78 74 71 72 74 75 73 69 65
96 95 91 85 80 85 87 93 97 100 100 97 97 97 97 95 97 98 96 96 97 97 97 95 93 91 83 79 79 80 80 84 82 83 82 80 74 67 61 57 51 41 34
95 98 96 91 91 86 86 87 90 95 97 94 95 94 96 98 97 95 95 95 96 97 96 96 96 96 95 96 96 95 92 87 83 79 73 70 69 71 65 58 51 38 26
93 94 97 97 93 91 90 88 87 94 92 92 96 96 96 91 91 91 88 85 90 89 78 81 80 80 80 76 74 73 69 68 73 74 70 60 51 45 53 54 57 48 34
97 95 93 94 94 93 92 90 91 89 89 91 92 92 97 94 89 89 91 90 85 82 77 75 69 60 52 45 43 44 48 51 46 45 49 45 44 49 49 40 46 58 55
99 100 98 95 94 95 96 96 94 92 89 88 88 90 90 93 94 89 84 77 69 66 60 52 48 47 49 54 49 44 44 46 47 54 60 56 52 50 44 41 46 52 56
86 88 94 97 99 98 98 98 95 86 67 79 93 87 69 59 70 73 71 63 53 49 52 55 54 53 54 57 56 53 50 51 47 44 44 47 50 52 52 57 60 56 56
97 97 94 86 94 99 94 94 93 87 71 52 74 80 64 51 49 56 63 64 64 64 62 60 60 58 51 49 46 45 46 43 46 46 48 53 58 56 56 60 55 49 50
93 100 100 96 90 100 98 96 98 98 93 88 78 72 73 69 60 55 56 62 66 65 60 54 46 44 42 40 37 35 37 33 29 31 32 36 45 48 49 58 64 58 50
90 97 97 95 99 100 99 97 100 100 100 100 98 97 94 85 74 60 53 50 47 42 39 33 30 29 30 30 27 26 25 24 24 26 26 28 34 39 38 39 53 62 59
90 95 99 98 99 98 97 96 98 99 99 98 97 95 94 93 89 81 70 52 42 40 39 32 27 29 28 28 27 27 27 28 29 30 30 31 31 33 35 40 46 59 69
90 98 100 100 100 100 100 99 94 96 100 100 100 100 98 96 93 90 81 67 48 40 36 32 32 34 33 34 37 38 36 38 38 38 37 38 38 39 41 43 47 60 69
92 96 99 100 100 100 100 100 100 100 100 99 100 100 99 97 98 98 92 83 72 59 49 42 38 38 39 42 41 38 36 40 42 43 43 43 44 44 43 43 44 45 47

GFSGL_850_rhum_111.txt.gz
RH
99 98 86 63 70 98 98 73 64 66 67 79 85 87 87 98 100 98 99 96 92 96 98 100 100 99 100 97 94 90 88 86 84 73 70 70 72 72 70 68 66 70 70
100 100 100 96 98 100 100 92 73 69 70 75 87 88 90 89 80 98 99 97 99 98 99 100 100 99 99 100 100 98 91 95 97 92 79 79 73 76 73 80 69 70 71
99 98 100 100 100 97 99 99 79 77 77 86 98 91 88 82 80 100 99 98 99 99 99 98 100 100 100 100 98 97 97 93 90 90 77 79 77 76 80 73 76 80 81
98 99 99 100 100 99 95 96 98 90 90 91 99 96 92 72 99 98 100 95 98 98 99 100 100 99 100 100 98 100 98 93 95 100 90 94 90 89 90 84 86 82 85
92 92 96 98 100 100 98 99 98 100 100 100 100 100 83 96 94 96 90 99 100 98 98 100 100 100 100 98 99 98 97 93 95 97 100 100 97 92 82 82 82 78 96
96 94 92 98 100 98 100 100 100 100 100 100 98 100 93 98 99 97 92 97 100 99 100 100 100 100 100 99 99 98 96 99 98 99 100 98 94 93 93 90 87 96 96
99 99 96 97 97 96 98 97 99 100 99 100 99 100 100 100 100 98 100 100 100 100 100 100 100 98 99 100 100 100 100 100 100 99 100 100 99 97 99 99 92 91 87
96 99 100 100 99 99 94 95 97 98 99 100 100 100 100 100 92 93 96 100 100 100 99 100 100 99 100 100 100 100 100 100 100 100 100 100 96 93 97 92 90 90 94
97 98 100 100 100 99 100 98 100 94 94 99 98 100 100 100 100 100 100 100 100 100 100 100 100 100 100 100 100 99 100 99 98 100 100 100 100 100 100 100 100 100 100
98 99 99 100 97 95 98 99 100 100 100 100 98 97 99 99 99 100 100 100 100 100 100 100 100 100 100 100 100 100 100 100 100 99 100 100 100 100 100 100 100 100 100
97 98 99 99 99 100 100 99 99 99 99 99 100 98 100 99 95 99 100 100 100 100 100 100 100 100 100 99 100 100 100 100 100 100 100 99 100 100 100 100 100 99 100
89 92 93 96 97 98 100 100 100 100 99 98 99 99 100 99 99 100 98 100 100 100 99 100 100 100 100 100 100 100 98 100 100 100 100 99 100 100 97 95 94 95 94
80 77 83 87 91 93 94 97 95 95 98 98 96 96 97 97 97 98 98 99 99 99 100 99 99 100 100 100 100 100 98 98 100 99 99 99 98 99 94 82 73 66 67
82 81 78 72 79 87 92 94 94 95 96 95 94 95 98 97 97 98 97 98 98 98 96 98 97 98 99 97 96 97 97 98 98 97 96 91 83 76 74 72 74 74 59
86 84 83 82 79 78 81 88 93 96 97 97 96 94 92 89 93 95 96 96 96 96 97 98 97 96 97 96 96 96 96 96 94 90 85 79 75 74 71 65 55 44 36
87 88 89 89 88 87 86 87 88 92 94 94 96 96 96 99 95 91 92 95 97 97 96 96 96 96 96 97 97 96 96 96 96 96 96 95 91 82 62 53 45 32 22
92 92 93 90 91 92 92 90 91 95 95 92 89 91 90 89 87 83 84 85 79 86 77 79 81 84 87 88 86 85 82 80 82 82 83 79 67 57 53 36 33 34 32
90 95 92 92 92 92 91 92 93 90 90 92 98 99 98 96 94 91 89 89 83 81 76 70 64 58 54 54 53 49 47 47 46 46 48 46 47 44 39 40 46 47 42
71 81 88 92 96 98 98 95 90 86 79 85 95 92 85 87 94 91 87 80 75 69 63 56 54 55 54 56 55 54 53 49 48 52 53 49 44 42 40 43 46 47 45
80 81 81 78 79 94 96 95 93 81 65 66 84 81 70 55 59 66 68 66 59 58 61 63 62 62 61 60 60 60 55 50 46 45 48 49 46 47 46 47 51 48 42
83 82 87 92 83 81 94 95 90 86 84 79 64 62 51 48 52 56 62 65 64 61 59 60 62 63 62 59 53 49 49 48 47 46 48 50 49 48 45 47 51 49 42
84 85 90 92 94 95 95 96 97 98 92 87 87 84 80 72 66 58 55 55 57 58 56 54 48 46 43 39 36 33 32 30 29 32 38 39 44 46 45 48 53 56 49
83 86 88 92 92 96 96 96 97 100 100 96 95 94 89 80 74 67 57 48 46 42 37 33 32 34 33 30 28 27 27 26 26 27 27 28 31 34 34 34 36 38 34
85 87 88 94 99 99 97 96 100 100 100 100 97 97 98 97 93 84 74 63 53 44 41 38 34 34 34 32 31 30 30 30 30 30 31 31 32 32 32 34 35 36 38
95 91 92 98 100 100 100 100 98 93 98 100 100 100 99 98 99 96 88 78 71 58 44 42 41 40 38 36 34 32 30 31 32 33 34 35 36 36 37 39 40 40 40
94 91 98 99 100 100 100 100 100 100 98 98 99 100 100 100 100 100 100 91 83 65 53 47 44 42 41 40 38 36 34 33 38 40 39 38 39 40 40 41 41 42 42

GFSGL_850_rhum_114.txt.gz
RH
98 96 100 94 65 52 65 98 96 95 87 81 81 87 83 87 91 98 99 99 99 98 98 99 100 100 98 97 100 100 100 100 94 94 83 71 71 75 76 77 76 79 78
100 100 99 100 99 99 85 97 99 100 97 88 74 76 79 83 96 98 98 98 100 100 99 96 99 98 98 99 100 99 99 100 95 79 80 85 78 73 74 75 80 84 86
100 100 100 100 99 100 96 99 99 100 100 100 88 74 71 79 99 100 99 99 98 99 91 99 99 100 100 100 100 100 99 99 92 85 88 92 94 76 84 86 90 82 73
97 99 98 100 100 100 100 99 99 100 100 100 99 90 80 87 98 100 99 88 100 96 98 99 100 100 98 100 100 100 100 100 98 92 97 92 93 93 87 89 90 86 85
93 96 100 100 100 100 100 99 99 98 100 99 99 99 100 100 100 100 93 100 99 98 98 97 100 99 98 99 100 99 100 100 98 94 96 97 91 90 89 81 85 90 95
99 98 97 95 93 93 96 98 100 98 99 99 99 100 100 100 99 84 100 99 91 98 97 95 92 99 100 100 100 100 100 99 98 98 94 99 92 90 80 90 96 100 100
98 100 100 99 99 97 95 95 96 100 99 100 100 100 100 100 100 96 100 100 98 91 99 100 100 99 100 100 100 100 99 100 100 93 91 93 93 89 95 98 99 99 94
97 96 97 100 99 99 99 100 96 96 100 99 98 100 97 99 100 94 100 100 100 99 99 99 98 100 100 100 100 100 99 100 100 100 100 100 99 100 100 100 100 100 100
96 98 99 98 99 99 98 99 100 99 98 98 100 99 96 90 94 99 100 100 100 100 100 100 100 100 100 100 99 100 100 100 100 100 100 100 99 100 100 100 100 100 100
95 96 96 96 99 99 99 98 100 99 99 100 99 98 97 97 95 94 98 99 100 100 100 100 100 99 100 100 100 100 100 100 99 100 100 100 100 100 100 100 100 100 100
85 88 90 91 93 96 99 99 99 99 100 100 99 100 100 100 100 100 100 98 100 98 100 100 100 98 100 100 100 100 100 100 100 100 100 99 100 100 100 100 100 100 100
81 78 83 88 90 91 92 93 95 95 94 95 98 98 98 99 97 96 97 98 99 100 99 100 96 99 98 100 100 100 100 100 99 100 100 100 100 98 100 100 100 100 99
83 79 77 78 82 86 86 88 89 90 89 89 87 88 94 98 100 100 96 97 98 98 98 98 98 99 99 99 99 99 99 99 99 99 100 98 99 98 98 97 99 98 98
83 83 81 77 76 77 78 83 85 89 91 92 93 92 90 90 91 94 97 97 96 97 98 97 97 98 98 96 97 98 98 98 98 97 97 97 97 97 96 95 96 94 94
84 86 87 86 84 84 87 92 95 100 100 99 99 94 90 88 94 91 92 90 91 94 97 98 97 97 97 97 98 96 96 97 98 97 96 96 96 96 96 88 70 62 46
85 88 90 90 90 90 90 92 96 99 100 96 94 95 95 94 88 80 80 83 87 98 97 93 93 95 95 95 95 95 96 95 95 95 95 96 96 96 96 95 86 55 24
62 73 78 80 85 87 86 86 87 90 90 93 94 92 92 91 88 84 83 82 78 82 75 78 82 87 89 90 89 88 88 90 91 90 89 80 72 56 46 41 37 33 27
70 67 60 64 73 82 83 81 79 74 72 75 86 88 85 86 88 86 80 86 80 75 68 62 57 55 54 51 47 47 48 48 48 45 44 45 42 38 37 38 37 35 33
68 69 74 72 70 81 89 87 78 67 62 63 78 77 71 59 57 70 76 68 61 53 50 47 50 50 47 46 43 41 40 40 40 41 40 39 37 38 38 40 40 35 28
61 66 67 72 83 79 83 90 84 78 74 69 60 50 43 43 44 45 50 56 55 53 58 60 61 62 60 58 56 52 50 46 43 42 40 39 35 34 30 30 30 31 28
63 71 68 66 73 89 94 95 91 92 89 85 75 70 64 60 58 54 58 61 61 60 56 55 56 56 53 47 42 40 40 38 40 39 38 38 36 40 38 35 34 34 32
52 71 79 76 81 87 95 96 97 96 95 95 93 90 86 76 68 63 56 52 52 57 57 53 50 46 43 39 33 30 30 29 30 35 38 40 44 43 41 38 33 32 32
54 77 86 83 88 93 96 98 100 100 100 97 97 97 95 91 86 78 67 58 54 52 46 44 40 39 33 30 27 26 26 25 25 25 26 28 29 31 31 31 32 33 35
67 87 87 80 81 91 96 97 100 100 100 100 100 100 100 98 93 91 84 74 64 55 48 44 40 38 35 32 30 29 29 29 29 29 30 31 31 33 34 35 38 39 40
75 88 86 89 92 96 100 100 100 100 100 100 100 100 100 100 100 99 99 93 78 66 59 58 53 47 43 39 36 33 31 33 36 37 36 37 38 39 40 40 40 40 40
91 92 84 87 99 100 98 98 100 100 100 100 100 100 100 100 100 100 100 98 85 85 73 65 61 54 50 46 42 38 36 33 36 40 40 40 42 42 42 42 42 41 41

GFSGL_850_rhum_117.txt.gz
RH
98 99 99 99 93 80 78 93 99 100 92 73 73 80 68 72 70 87 96 96 91 91 91 96 91 94 94 95 97 99 100 100 100 100 98 94 94 84 94 80 75 74 78
100 100 99 97 98 99 99 83 73 99 100 100 100 100 92 78 81 78 90 98 95 93 94 96 94 98 98 98 99 98 100 100 100 100 98 97 99 92 81 79 78 80 78
100 100 100 100 100 99 98 99 98 96 99 99 100 99 99 99 97 86 91 100 98 97 98 97 98 100 99 95 96 99 100 100 100 100 97 95 100 96 78 70 80 85 83
97 97 99 100 100 100 100 100 99 99 100 99 99 100 100 100 100 100 99 100 100 99 100 98 98 96 96 98 99 98 98 100 100 100 100 98 98 92 89 82 86 88 90
96 95 97 98 100 100 99 100 100 100 98 98 100 100 100 100 100 99 99 99 100 100 96 94 96 94 97 99 100 99 100 100 100 100 100 100 98 93 97 96 92 87 92
100 100 100 98 94 95 95 96 100 100 100 98 99 100 100 100 100 100 99 99 100 100 94 96 95 96 93 99 97 100 99 100 100 99 100 93 90 90 100 99 88 100 100
93 98 100 100 99 99 98 96 95 99 99 99 99 100 100 100 99 100 100 100 98 100 99 94 98 96 96 92 91 100 100 100 100 100 100 94 88 88 89 97 95 94 90
92 95 96 100 100 100 100 100 99 99 99 97 96 98 100 99 95 97 100 100 98 100 100 95 100 99 99 100 97 98 100 100 100 100 100 99 94 92 97 98 92 99 99
90 92 95 96 98 97 98 99 100 100 98 98 99 99 98 100 100 98 98 98 98 100 100 100 99 100 99 99 100 100 100 100 100 100 100 100 100 100 100 100 100 100 100
86 92 92 91 93 96 98 98 98 98 98 98 98 98 97 95 98 98 98 96 94 95 97 100 100 98 99 100 100 100 100 100 100 100 100 100 100 100 100 100 100 100 100
77 80 85 90 91 92 93 92 93 92 92 91 91 91 91 94 95 96 100 100 100 98 96 100 98 99 100 100 99 100 100 100 100 100 99 100 100 100 100 100 100 100 100
76 74 74 77 83 87 88 87 87 85 85 86 87 89 92 92 94 97 100 99 100 100 99 98 98 98 99 100 98 100 100 100 98 100 100 100 100 100 100 100 100 100 100
82 78 75 74 74 74 74 77 78 82 84 87 88 89 92 95 94 95 93 92 92 90 96 99 99 97 98 98 98 98 98 100 98 99 99 98 100 100 100 99 100 100 100
79 85 83 80 79 78 78 81 80 82 84 83 83 88 87 80 82 90 92 91 94 95 96 95 97 99 98 97 98 97 97 97 98 98 97 96 96 98 98 97 98 98 98
83 73 74 78 80 82 83 86 92 98 98 93 91 88 82 79 83 81 73 78 91 98 98 98 94 94 95 96 96 96 97 96 97 96 96 97 95 97 96 96 96 96 96
53 54 51 58 68 73 77 80 81 83 86 88 87 84 86 85 82 77 76 78 79 91 90 88 90 94 93 96 96 96 96 96 96 96 96 96 96 96 96 96 95 95 96
51 51 49 46 50 53 51 50 52 62 69 73 76 77 78 77 77 74 70 74 76 76 70 71 73 75 78 82 85 90 94 95 95 95 95 95 95 93 69 38 29 24 20
52 52 48 48 50 53 56 57 54 48 46 45 49 55 62 61 53 61 59 74 68 59 54 50 48 46 45 44 44 42 43 46 43 42 41 40 42 42 38 32 29 26 26
48 52 56 56 59 60 62 66 64 61 58 54 49 44 36 34 43 52 56 50 47 43 42 44 49 51 49 45 41 40 40 38 37 36 34 34 35 38 33 33 32 30 32
45 58 63 60 63 70 79 84 82 76 74 68 60 51 45 47 40 36 41 46 50 51 55 55 51 50 50 49 46 44 43 41 41 40 37 34 33 32 30 29 28 26 23
41 51 60 67 70 77 86 92 93 92 89 85 80 74 67 56 51 51 53 59 60 57 52 52 53 51 47 42 38 38 39 38 38 37 37 36 34 35 31 28 26 25 23
48 62 69 72 75 82 91 96 99 99 97 96 94 90 86 77 67 59 54 51 52 59 63 58 52 47 42 36 32 30 31 31 35 41 42 40 40 37 34 32 31 29 28
53 67 79 78 73 75 88 96 100 100 100 98 97 97 95 91 85 78 68 59 55 52 49 46 45 43 37 33 29 28 27 27 28 29 34 36 35 33 31 32 32 32 30
58 64 68 68 73 79 85 95 100 100 100 100 99 99 100 98 97 94 89 82 69 60 53 50 47 43 40 38 35 33 31 30 30 31 32 32 33 34 34 34 35 35 34
66 74 74 74 75 84 92 93 97 100 100 100 100 100 100 100 100 99 97 92 86 82 72 67 60 54 48 44 40 38 36 36 36 36 36 36 36 36 36 36 36 35 36
79 79 83 87 92 90 92 96 98 98 100 100 100 100 100 100 100 100 99 94 92 88 82 70 64 61 55 48 44 39 35 33 36 40 39 39 40 40 40 40 41 42 42

GFSGL_850_rhum_120.txt.gz
RH
98 99 100 100 97 95 96 96 98 99 99 98 100 99 95 88 65 64 72 69 60 90 96 88 86 90 96 100 96 92 87 95 100 98 100 98 98 97 96 98 100 86 89
100 100 100 100 98 99 99 99 93 86 100 99 100 99 100 92 84 100 79 70 81 94 98 100 90 92 95 99 100 94 94 91 99 100 98 99 98 98 99 97 100 90 85
98 98 99 99 99 99 99 99 99 100 98 99 100 100 100 99 96 98 100 100 100 99 99 99 94 96 95 100 97 92 99 93 98 100 99 100 100 99 100 100 100 89 93
100 100 98 99 100 100 100 100 100 99 100 100 100 99 98 100 100 100 100 100 100 99 99 100 99 99 95 94 98 97 93 93 96 100 100 100 100 98 100 100 100 100 100
100 100 99 99 99 100 99 100 100 100 100 100 100 100 100 100 99 99 100 100 100 100 100 100 100 100 100 100 100 92 93 99 99 100 100 100 100 99 98 98 100 96 92
100 100 100 99 100 99 98 99 100 100 100 100 100 100 100 99 98 99 100 100 100 100 100 100 100 89 83 100 95 94 98 100 100 100 100 100 98 100 100 100 100 100 100
100 100 99 98 98 99 100 100 99 98 99 98 99 98 99 100 100 96 95 100 100 100 100 99 100 88 100 93 96 97 100 100 100 100 100 98 100 98 99 99 97 94 94
91 94 95 94 94 94 92 93 95 97 96 98 97 97 95 98 99 100 100 100 100 100 100 100 100 100 100 97 100 96 100 99 100 100 100 100 100 100 100 88 86 98 100
88 92 92 94 93 94 95 94 92 91 90 91 92 93 94 98 100 99 99 100 100 100 99 99 100 100 100 99 100 100 100 99 99 100 100 100 100 100 100 100 100 100 100
80 86 86 87 87 88 90 89 90 88 89 90 90 90 90 90 94 97 99 100 99 100 100 100 99 98 99 100 98 100 100 100 100 100 100 100 100 100 100 100 100 100 100
70 68 70 75 81 84 84 83 82 82 82 83 85 86 87 88 91 91 93 93 99 100 100 97 98 99 100 91 95 100 100 100 100 100 100 100 100 100 100 100 100 100 100
98 79 73 72 71 71 72 76 78 77 78 80 79 80 82 84 85 87 89 90 91 90 96 98 98 99 100 99 99 96 97 100 98 99 99 100 100 100 100 100 100 100 100
95 95 96 88 79 79 80 74 75 76 84 86 83 80 72 70 75 82 84 89 90 91 99 100 100 99 99 99 98 99 99 99 99 98 99 98 100 99 99 100 98 100 99
85 84 86 88 86 88 80 88 83 77 91 88 85 87 84 72 65 64 66 79 90 95 96 97 97 99 98 100 100 97 96 97 98 98 97 96 97 98 97 97 98 96 97
79 83 80 85 85 79 85 56 60 65 74 78 78 85 83 82 82 76 67 67 76 92 96 96 94 93 94 96 98 98 97 96 96 96 97 97 96 97 97 96 97 97 96
84 86 89 95 93 87 84 81 83 50 54 59 65 67 73 76 73 70 70 72 75 76 80 86 91 94 97 98 96 98 98 97 97 96 95 96 96 97 96 95 96 96 96
98 73 98 99 100 99 98 100 99 98 61 38 36 36 41 52 56 55 56 63 69 68 87 98 98 98 96 96 100 100 99 97 98 98 98 97 96 96 96 96 95 94 94
69 100 100 100 100 100 100 100 100 100 100 98 52 30 30 29 30 45 60 91 97 76 84 96 99 100 100 100 96 96 84 73 60 87 79 69 75 86 68 73 82 52 45
62 100 77 100 100 100 100 100 100 100 100 100 100 74 37 31 34 39 41 74 100 100 100 100 100 100 100 100 99 94 81 57 70 88 90 94 86 85 57 40 36 45 74
99 100 95 100 100 100 100 100 100 100 100 100 100 94 51 98 98 97 91 92 100 100 100 100 100 100 91 99 95 94 100 99 99 100 100 100 100 100 94 86 73 63 73
100 100 100 100 100 100 100 100 100 100 100 100 100 94 75 100 100 100 100 100 100 100 100 100 100 84 92 86 86 90 82 95 90 100 100 100 100 100 100 100 81 76 82
100 100 100 100 100 100 100 100 100 100 100 100 100 100 96 100 100 100 100 100 98 100 99 100 96 56 45 39 39 67 57 61 61 87 100 100 100 100 100 100 100 100 93
100 100 100 98 100 100 100 100 100 100 100 100 100 100 100 100 100 100 100 100 100 85 53 67 57 44 39 36 32 30 30 31 34 39 76 100 100 100 100 100 100 100 97
100 100 100 100 100 100 100 100 100 100 100 100 100 100 100 100 100 100 100 100 100 100 72 57 49 46 43 40 37 35 33 31 31 32 34 56 100 94 100 100 100 49 85
100 100 100 100 100 100 100 100 100 100 100 100 100 100 100 100 100 100 100 100 98 100 92 72 64 54 48 45 42 39 36 37 36 35 34 35 35 36 36 62 71 82 45
100 100 100 100 100 100 100 100 100 100 100 100 100 100 100 100 100 100 100 100 100 100 96 99 77 60 57 56 45 41 37 34 36 40 39 40 46 52 61 44 40 100 59

GFSGL_850_rhum_123.txt.gz
RH
99 99 100 100 98 98 90 88 99 98 99 99 100 99 99 98 98 99 100 98 99 81 82 83 82 84 96 89 90 95 95 92 100 77 98 85 92 92 94 96 95 98 98
98 98 96 100 88 98 99 100 97 96 99 100 100 100 100 99 99 99 100 98 85 84 77 59 70 67 77 91 100 98 98 98 100 86 82 87 83 89 98 99 100 100 100
97 100 100 98 100 100 99 100 99 99 99 100 100 100 100 100 100 100 100 100 99 98 87 97 100 99 98 98 98 100 99 100 100 100 91 100 96 93 99 99 98 100 100
99 98 100 100 100 100 100 100 100 100 99 98 99 100 100 100 100 99 98 99 99 100 100 98 100 100 100 100 100 99 99 100 99 99 99 89 94 98 100 100 100 100 100
100 100 100 100 98 97 98 100 100 99 99 100 100 100 100 99 98 99 99 100 100 100 100 100 100 99 100 100 100 100 100 99 98 98 99 99 98 99 98 99 100 99 100
99 96 100 93 93 96 93 91 91 94 96 98 98 98 99 99 99 99 99 100 100 99 99 100 100 100 100 100 100 100 96 76 91 97 100 100 98 99 99 100 100 100 100
93 92 88 89 91 91 94 91 89 90 90 88 87 87 87 90 92 94 95 97 99 99 100 98 100 100 100 100 100 98 100 95 96 91 99 99 99 98 100 100 100 99 99
85 86 82 87 89 90 89 88 88 88 88 86 87 88 90 91 93 93 99 99 100 100 100 100 100 100 100 100 100 100 100 100 100 100 100 100 100 99 100 99 98 100 100
78 83 80 84 84 83 82 82 83 84 83 84 84 84 86 89 92 92 93 98 98 99 100 99 99 100 99 100 98 100 100 100 100 100 100 100 100 99 100 100 100 100 100
87 76 73 74 72 74 79 82 83 81 83 83 83 83 85 86 87 87 86 91 93 98 99 99 98 96 99 97 96 99 100 99 100 100 99 100 100 100 100 100 100 100 100
91 75 68 63 62 66 69 71 72 74 71 72 74 74 74 77 80 80 81 82 86 88 90 91 94 97 97 98 100 100 99 100 99 100 99 100 100 99 100 100 100 100 100
83 88 94 93 91 88 84 71 64 65 66 63 63 65 66 63 63 68 78 85 89 90 95 99 99 98 98 98 96 99 99 99 100 100 100 99 100 98 100 99 99 100 100
71 73 76 79 77 84 88 92 61 58 74 72 71 74 69 64 60 59 62 76 89 94 97 100 100 99 100 96 95 98 98 98 98 99 98 98 98 99 100 96 97 99 99
68 73 76 75 71 70 83 83 89 46 74 95 70 72 66 62 60 60 61 60 67 81 90 96 95 97 98 100 98 96 95 96 96 97 97 97 97 97 97 97 98 97 99
73 75 84 83 82 77 82 86 96 66 45 38 41 79 80 60 59 61 60 60 65 73 88 97 93 94 94 94 96 96 97 98 96 97 96 96 96 97 96 97 97 98 96
87 85 88 88 87 86 86 86 94 95 91 81 54 32 30 30 31 42 52 61 65 68 98 100 100 100 100 100 100 100 96 96 98 99 98 97 96 96 97 97 96 95 95
97 98 96 95 96 97 97 98 99 100 99 95 92 70 35 25 23 24 37 63 96 80 100 100 100 100 100 100 100 100 100 100 99 98 97 98 98 97 97 96 96 96 96
49 100 100 100 100 100 100 100 100 99 99 98 98 97 72 75 69 42 30 83 100 100 100 100 100 100 100 100 100 100 100 100 100 100 100 100 100 100 100 100 94 86 91
98 100 100 100 100 99 99 98 96 95 95 95 96 100 83 82 100 100 100 100 100 100 100 100 100 100 100 99 100 100 100 100 100 98 99 99 100 100 100 91 77 85 81
100 99 99 100 98 96 96 95 94 93 93 93 94 98 85 85 100 100 100 100 100 100 100 100 100 100 100 100 100 100 100 100 100 98 100 100 98 100 100 100 100 92 85
100 98 97 93 93 92 93 94 91 93 94 92 94 96 94 91 100 100 100 100 100 100 100 100 100 100 100 100 100 100 100 100 100 100 100 100 100 100 100 100 99 94 87
94 95 93 90 88 93 95 94 97 95 97 100 97 98 98 99 100 100 100 100 100 100 100 100 100 100 100 100 100 100 100 100 100 95 100 100 100 98 100 100 100 100 94
94 98 97 89 94 96 96 98 97 100 98 97 100 100 100 100 100 100 100 100 100 100 100 100 100 100 100 100 100 96 67 60 65 47 80 100 100 99 100 100 100 100 100
94 100 99 96 97 99 100 100 100 98 98 99 100 100 99 100 100 100 100 100 100 100 100 100 100 76 54 52 52 45 35 34 32 33 40 85 100 100 100 100 100 84 100
97 99 97 97 99 99 100 100 100 100 100 100 100 96 100 100 97 100 100 100 100 100 100 100 100 100 89 54 46 43 38 37 38 37 37 100 76 100 67 100 96 100 73
100 99 99 99 99 100 100 100 100 100 100 100 100 99 100 100 100 100 100 100 100 100 100 100 100 100 74 100 73 50 42 36 34 40 44 98 100 100 100 100 68 100 93

GFSGL_850_rhum_126.txt.gz
RH
100 100 100 98 97 100 97 96 92 97 92 85 92 93 93 99 96 96 99 100 98 100 95 93 70 57 78 65 76 71 88 100 100 78 82 90 96 88 84 76 78 86 90
100 98 97 100 100 100 100 98 100 95 86 100 100 100 100 100 100 99 100 100 100 97 95 98 84 86 79 53 51 61 63 72 88 100 84 94 100 88 82 79 81 91 94
100 93 94 97 100 99 100 99 90 92 98 90 97 100 100 99 100 100 99 100 100 100 100 100 98 99 100 83 70 85 96 82 72 96 98 97 100 98 89 96 83 97 99
100 100 86 96 100 99 100 100 99 97 95 96 97 99 100 100 99 100 100 100 100 100 100 99 99 99 100 99 99 98 99 99 98 98 100 99 99 93 97 93 91 98 99
97 96 97 93 94 100 98 98 100 98 98 100 99 98 98 100 100 99 100 100 100 100 100 100 100 100 100 100 100 100 100 98 99 100 100 97 98 85 86 82 90 100 98
98 100 100 98 97 100 99 98 98 96 92 90 89 89 90 93 93 90 93 96 99 100 99 100 99 100 100 100 100 100 100 100 100 99 100 94 98 98 90 91 97 100 100
81 85 86 93 100 98 96 90 87 83 84 84 84 87 91 92 93 92 93 96 100 99 100 99 100 100 99 100 100 100 100 100 100 100 100 100 100 99 95 100 100 99 99
68 68 71 83 85 88 84 79 81 81 80 78 77 78 79 83 86 87 91 94 96 96 94 94 96 97 98 97 98 98 100 100 100 100 100 100 100 100 100 100 99 100 100
73 77 78 77 79 95 94 90 86 74 73 72 72 73 74 76 77 78 77 82 89 94 97 97 96 94 93 91 91 92 100 100 98 100 100 100 100 100 100 100 100 100 99
80 77 79 68 64 64 66 68 74 70 76 79 71 65 62 64 66 70 72 75 77 81 84 86 88 90 91 93 93 94 98 99 99 100 100 98 98 100 100 100 100 100 100
78 77 75 74 68 59 55 52 58 64 64 63 66 67 63 60 59 57 60 69 78 82 84 84 86 91 92 93 97 95 96 97 98 100 100 100 100 99 100 100 100 100 100
71 77 75 72 74 78 58 39 30 32 38 37 44 50 58 60 61 59 60 72 82 89 93 95 93 94 94 94 92 98 99 97 99 98 99 99 99 99 99 100 100 100 98
69 66 79 66 72 76 66 52 37 32 28 28 27 28 28 29 34 47 58 61 66 83 100 100 99 95 95 94 96 96 95 95 97 95 97 97 97 97 97 98 98 99 100
68 77 69 76 77 79 69 74 60 50 49 49 41 30 28 26 23 21 22 38 51 62 93 100 100 100 100 97 92 92 93 94 96 96 98 98 96 97 97 96 96 98 98
83 70 68 87 86 83 89 88 90 81 76 72 62 57 39 36 41 24 28 39 53 79 100 100 94 99 98 99 100 95 94 95 93 95 95 96 95 97 97 97 96 96 96
51 80 81 94 92 89 90 94 96 92 91 94 94 84 74 63 66 30 30 71 82 94 100 100 100 100 99 96 96 100 98 95 96 97 96 96 96 96 97 97 97 95 96
54 99 78 92 92 92 90 91 88 87 91 100 99 93 85 48 96 99 50 84 100 87 98 96 93 97 100 100 96 94 94 95 98 99 97 94 95 94 93 95 96 96 96
75 100 76 94 92 90 90 88 88 89 91 85 95 96 87 73 84 100 100 68 79 88 96 100 97 95 98 100 96 99 100 100 99 98 97 96 99 88 85 93 94 94 94
83 95 88 88 88 91 85 85 84 88 89 86 88 92 86 78 83 100 94 88 97 100 95 100 100 96 99 99 100 99 100 99 100 99 99 98 99 97 95 95 82 83 81
87 92 89 86 89 89 82 87 92 79 86 86 92 98 94 90 83 94 99 96 96 99 98 99 100 100 96 100 100 100 100 98 97 99 100 96 99 100 97 91 94 87 80
95 94 90 87 86 90 91 89 82 98 91 87 86 100 99 87 90 93 96 100 96 100 100 100 100 100 98 92 92 99 100 100 95 99 97 100 99 96 100 100 99 86 88
95 92 90 89 92 90 92 86 96 89 84 92 87 85 97 96 91 90 93 96 93 99 100 100 100 100 96 100 100 86 87 74 58 95 99 100 100 95 98 90 99 98 90
71 96 86 89 89 90 85 88 89 81 89 88 86 84 86 99 98 97 87 92 97 91 100 100 100 96 77 86 90 56 47 40 39 45 96 99 100 100 100 100 92 99 88
86 92 89 88 89 88 89 88 85 91 88 86 87 88 91 94 93 96 94 100 99 94 95 100 100 100 86 79 59 50 43 38 38 38 57 94 98 98 100 100 95 94 79
90 87 92 98 92 92 86 88 92 84 84 84 86 89 88 94 91 89 90 99 98 96 95 99 100 100 100 87 68 72 50 40 39 43 57 73 83 90 83 93 100 98 80
93 91 92 92 95 94 94 93 93 98 98 89 76 70 75 86 98 91 93 99 100 100 100 99 100 100 100 99 92 92 66 51 43 47 56 72 90 98 100 90 93 100 94

GFSGL_850_rhum_132.txt.gz
RH
99 97 97 100 100 100 100 99 99 97 100 99 84 66 65 98 97 100 100 99 97 99 100 99 99 99 98 99 99 99 98 95 98 66 66 64 68 78 77 68 77 84 83
99 92 96 97 98 99 100 100 100 100 97 94 73 63 95 96 100 98 100 100 99 100 100 100 99 100 100 100 100 100 98 86 94 74 79 65 72 82 76 76 73 78 84
96 96 93 96 97 99 100 100 100 100 100 100 99 96 77 85 100 100 96 100 99 97 100 99 100 100 100 99 100 99 99 100 100 97 87 83 80 84 90 91 87 87 89
96 96 96 96 97 98 100 100 100 100 99 100 99 98 96 100 99 100 94 93 100 100 99 93 99 99 99 100 100 100 100 100 99 100 99 94 87 87 92 96 98 99 91
88 95 96 97 95 97 100 99 100 100 100 99 98 100 100 97 99 98 96 99 99 100 100 99 100 100 98 100 100 100 100 100 96 100 100 99 100 99 98 99 98 97 99
61 76 83 100 98 97 96 100 100 100 90 85 91 92 92 98 99 100 99 99 98 100 100 100 98 99 95 96 98 97 99 98 99 100 100 100 99 100 99 100 100 100 100
47 36 45 58 58 68 72 61 56 67 79 84 82 87 92 98 96 90 93 94 95 95 94 96 92 90 90 91 95 90 93 93 96 100 100 99 99 99 97 99 99 100 100
49 34 28 26 34 43 56 61 65 57 56 49 50 56 59 71 74 81 82 75 71 72 74 77 80 86 86 85 86 88 90 92 93 97 98 99 100 99 100 99 99 98 100
67 59 49 40 27 27 29 32 34 35 36 42 46 51 52 54 54 52 54 58 61 67 70 69 68 70 75 78 78 82 85 86 90 94 95 95 96 97 98 96 98 96 92
72 72 60 49 42 35 30 28 22 20 22 21 20 21 26 32 42 47 49 50 51 54 57 60 66 75 76 76 77 79 79 83 87 91 94 97 98 97 96 97 98 97 99
63 58 49 45 50 42 28 24 21 15 12 14 16 18 22 23 24 24 26 30 42 54 64 71 79 78 80 81 82 82 85 90 88 89 88 88 90 90 91 93 95 97 98
42 45 48 49 47 39 30 26 20 17 13 15 13 12 15 19 22 25 28 32 35 43 49 61 70 70 68 80 82 88 91 89 86 84 82 80 80 82 84 87 90 93 96
44 48 58 55 50 42 40 41 28 22 21 25 26 24 22 15 14 19 25 28 32 33 45 67 71 70 67 67 74 84 84 84 85 85 86 88 89 90 91 91 91 95 97
41 43 41 38 41 39 39 42 43 45 56 53 48 50 42 39 50 37 28 35 36 43 46 56 61 65 72 71 66 69 78 91 94 92 92 93 92 88 86 85 83 86 90
32 34 37 43 51 56 54 56 63 69 74 84 83 84 70 68 93 96 56 75 74 80 72 62 49 45 45 46 51 61 62 73 84 92 91 91 90 88 89 90 90 88 85
45 36 38 44 53 63 70 77 89 93 88 90 84 77 81 93 100 100 54 42 38 46 53 56 60 62 60 64 68 70 76 80 88 93 89 90 92 85 90 94 95 95 91
54 67 86 94 93 88 83 83 81 69 83 88 96 90 99 100 99 64 55 53 42 35 36 45 50 59 63 66 69 83 83 94 100 99 96 99 97 92 84 88 94 97 98
60 63 69 78 89 91 88 78 82 97 94 87 91 94 87 96 100 77 72 63 45 40 44 55 61 61 67 68 65 72 84 84 93 98 100 100 100 98 95 93 87 84 85
45 56 67 71 76 79 75 76 72 80 82 81 87 87 81 83 98 100 97 86 77 72 63 60 57 63 72 75 69 64 73 85 93 96 100 100 100 100 98 95 95 86 80
57 60 72 72 74 75 77 73 77 77 74 75 77 74 75 79 82 99 99 93 89 84 84 83 75 69 69 65 58 59 60 59 67 77 97 100 100 100 99 99 97 91 83
88 80 76 66 83 84 84 80 75 73 74 75 72 68 66 68 73 81 93 100 92 89 92 90 78 71 70 74 69 60 50 45 45 57 80 100 100 100 100 100 99 98 93
100 88 74 70 70 83 94 92 85 86 87 89 91 92 86 83 69 67 73 86 89 86 96 95 85 79 77 76 77 67 59 48 42 42 68 100 100 100 100 100 98 96 97
96 83 59 62 76 81 86 89 99 100 96 91 88 100 100 97 100 98 74 67 83 85 84 89 90 84 85 88 82 80 76 64 47 40 44 96 100 100 100 100 97 88 83
68 59 60 74 78 82 92 96 98 96 89 87 92 94 87 77 76 99 100 86 73 78 78 89 88 87 80 87 89 87 88 81 62 48 55 71 95 99 98 100 100 97 86
61 56 72 84 94 98 99 98 100 100 100 100 99 99 97 91 83 86 83 100 98 81 70 74 89 94 95 96 99 93 90 90 72 58 59 76 92 97 95 98 95 98 92
44 53 70 71 62 68 84 93 97 98 99 100 100 100 100 100 98 89 76 82 99 100 84 73 82 96 100 99 98 94 96 92 79 66 68 78 91 90 95 100 99 100 97

GFSGL_850_rhum_135.txt.gz
RH
98 96 98 97 100 100 99 99 100 100 97 97 98 98 78 58 68 67 90 75 85 99 84 82 80 88 94 89 93 94 96 92 95 87 86 82 76 65 70 77 81 79 76
98 97 97 99 100 97 99 98 100 100 98 93 96 97 92 92 100 100 98 100 80 99 100 86 100 98 90 99 92 94 92 83 93 91 84 90 90 78 76 75 76 81 72
100 97 97 97 95 96 96 100 99 100 100 100 95 90 86 99 100 98 100 100 100 100 98 100 100 99 100 100 100 99 95 99 89 87 96 68 79 88 77 74 72 70 72
71 90 95 96 98 95 94 96 96 99 100 100 100 100 95 87 91 88 85 94 99 98 99 100 100 100 99 100 100 99 99 99 100 100 98 92 100 86 92 93 87 86 82
44 60 77 95 97 97 97 96 95 98 100 99 100 100 100 94 99 100 92 90 81 95 100 96 99 100 100 97 95 92 99 96 100 92 100 100 100 98 99 99 99 98 86
26 29 35 52 76 89 85 96 98 98 98 100 100 100 100 98 100 98 90 95 98 99 100 99 100 97 98 100 100 96 99 100 100 100 98 100 97 99 99 100 100 99 99
41 30 26 25 27 34 34 40 66 54 60 83 95 98 100 100 99 100 98 94 97 99 98 98 97 96 93 92 93 96 100 98 99 99 96 99 100 100 100 100 100 100 99
53 46 33 24 22 21 20 22 25 26 35 48 59 66 65 71 68 80 80 82 90 95 93 89 88 89 93 93 92 90 85 87 89 95 97 98 98 100 100 99 100 100 100
50 48 37 28 21 16 14 14 17 18 21 27 35 45 46 48 49 39 36 45 54 65 65 72 80 82 85 82 77 77 80 80 82 85 90 94 98 96 93 93 93 93 91
50 47 40 32 26 27 24 23 21 21 24 32 36 33 38 28 26 24 21 25 27 34 46 59 62 75 77 74 76 82 75 80 85 88 90 89 88 87 88 87 90 96 100
47 33 28 29 35 38 36 32 30 28 28 33 36 36 24 22 18 16 15 15 25 24 30 40 44 52 61 65 69 70 75 86 85 83 82 83 83 83 83 83 86 87 92
38 34 40 38 33 26 22 27 33 38 37 38 33 34 37 35 32 44 29 21 23 19 27 36 36 39 44 57 62 74 81 81 81 80 80 77 78 80 82 84 84 85 88
28 34 39 41 38 41 39 38 34 40 47 49 49 46 62 68 40 27 26 28 40 40 46 48 46 42 41 40 41 46 49 57 68 76 83 86 90 89 88 90 91 90 92
20 32 42 44 41 36 37 44 49 62 80 65 45 39 56 66 67 30 25 25 25 26 38 47 46 40 38 38 36 36 42 51 65 79 82 87 91 90 89 89 86 89 90
26 30 28 28 27 31 40 35 35 65 94 73 66 56 62 84 98 80 45 28 20 17 17 16 14 17 22 23 27 35 42 49 50 59 65 66 67 71 78 89 96 96 96
26 35 37 37 37 36 32 34 40 59 81 82 51 61 73 95 99 77 36 27 23 19 16 13 15 19 22 27 32 31 37 52 66 75 82 83 75 74 74 70 72 91 97
32 35 48 57 57 55 50 40 34 55 65 67 70 72 99 99 100 100 90 68 53 36 31 33 30 28 29 32 36 41 39 47 68 77 86 90 91 87 87 82 81 80 81
56 60 71 83 75 65 61 56 60 62 51 44 51 55 50 49 60 89 66 55 47 47 51 53 52 49 45 40 39 39 38 36 40 58 71 88 97 97 93 93 91 92 86
66 70 76 78 77 76 76 71 70 66 62 63 59 54 52 54 52 52 57 58 64 70 71 71 70 65 60 54 53 52 48 40 40 41 62 79 98 100 99 95 95 95 95
83 86 83 82 75 84 94 94 88 92 90 91 92 94 86 77 74 67 51 46 48 57 66 69 75 76 71 68 67 68 58 50 40 37 40 60 98 100 100 100 97 95 95
72 82 84 66 64 77 93 97 98 100 100 95 88 88 100 100 100 100 94 73 73 80 80 82 83 81 75 72 73 70 66 62 56 46 40 47 94 100 100 100 100 98 98
84 84 73 61 68 75 77 85 90 92 92 88 84 80 84 93 92 82 92 100 92 77 80 81 80 83 76 76 77 79 78 73 70 58 45 46 87 100 100 100 100 97 90
76 66 59 66 72 76 82 86 88 91 92 92 92 89 91 94 88 80 77 91 100 97 87 74 70 79 89 89 90 94 94 86 82 71 52 54 79 100 100 100 100 97 94
54 44 36 37 49 58 63 66 74 80 84 85 87 90 94 96 95 94 89 81 79 89 100 98 76 71 82 96 98 99 99 96 94 82 68 60 80 95 95 92 97 100 99
33 28 29 28 30 31 34 40 47 53 58 62 66 68 72 81 87 91 94 92 87 78 92 100 100 81 81 92 98 93 95 95 97 90 78 77 85 97 95 94 99 98 99
27 26 27 28 31 34 36 39 42 46 51 56 60 65 70 70 71 78 82 89 95 100 100 100 100 99 86 88 93 87 89 93 97 90 86 86 79 67 73 78 93 100 100

GFSGL_850_rhum_138.txt.gz
RH
96 97 96 97 99 95 97 99 98 100 99 98 99 98 99 98 64 37 43 53 54 81 82 88 83 94 76 69 70 75 81 87 84 79 80 79 79 76 78 78 65 64 64
96 100 97 97 97 96 97 99 98 98 100 100 100 99 96 99 99 80 73 73 86 80 64 71 87 100 97 83 75 75 82 83 87 83 81 81 81 78 82 72 74 74 75
63 89 98 99 98 97 97 98 97 97 99 100 100 100 100 100 100 100 100 100 99 100 88 67 98 100 99 98 89 77 84 89 88 95 85 80 83 84 84 87 79 75 74
25 43 85 99 99 98 98 98 96 97 96 98 100 100 100 100 100 100 100 100 100 100 100 100 99 98 98 100 100 100 99 92 98 100 99 100 97 97 86 82 83 87 82
12 15 22 28 64 84 93 97 98 98 96 97 98 100 100 100 100 100 98 100 100 94 89 90 89 94 98 98 99 100 100 100 98 99 100 97 100 100 100 99 98 100 98
17 14 15 16 16 18 27 46 87 96 97 98 97 96 95 98 99 99 99 100 100 99 97 99 96 95 100 97 96 99 100 100 100 100 97 88 99 100 100 98 100 100 100
23 20 19 16 15 17 18 19 25 34 64 83 85 85 78 93 98 99 100 99 100 100 100 96 94 94 97 99 98 97 94 95 97 100 98 96 96 96 100 100 100 96 100
30 28 27 26 26 19 16 14 14 16 16 22 19 21 28 36 50 65 78 87 93 99 100 100 97 96 96 97 98 99 96 99 98 97 99 96 98 99 100 99 97 89 92
42 38 34 31 29 27 21 19 20 17 16 14 19 12 9 11 21 25 28 32 33 42 52 62 85 84 95 95 93 92 93 90 92 96 96 89 85 86 84 85 81 79 79
46 46 41 37 32 30 28 25 20 15 16 13 13 13 11 18 28 28 32 32 30 28 22 22 25 28 30 39 52 80 83 89 92 94 90 86 89 85 79 77 80 83 82
42 37 36 35 43 42 38 30 29 21 13 12 16 21 14 11 20 46 34 25 27 22 27 29 29 24 22 28 32 34 51 75 82 85 84 83 84 83 83 84 84 84 85
32 31 28 27 26 25 27 36 35 26 24 32 38 41 30 22 19 17 14 13 13 11 15 28 32 29 24 25 23 31 34 35 38 46 57 62 68 71 77 84 86 86 87
28 26 30 32 32 33 29 37 62 49 44 51 61 78 98 96 72 43 23 18 17 16 19 20 19 17 18 18 19 21 21 20 25 28 35 46 59 74 80 81 86 90 90
26 26 27 28 34 32 36 62 96 96 70 60 54 58 82 89 94 60 36 26 20 16 15 13 13 13 13 13 12 15 19 27 35 42 45 52 50 45 51 58 62 75 81
23 28 27 25 24 25 31 36 47 77 100 97 80 88 94 98 100 100 100 80 38 34 27 20 16 14 13 13 14 15 15 16 18 28 36 38 42 45 50 58 62 60 64
18 22 25 25 24 24 23 26 33 36 40 40 52 49 61 92 100 100 100 54 41 32 24 22 24 28 28 28 24 23 24 26 27 28 34 43 47 55 58 63 69 71 73
19 20 23 24 29 29 27 24 25 33 34 30 26 29 33 36 64 96 49 43 38 33 33 41 43 42 41 41 40 37 34 34 35 34 35 53 63 71 79 78 82 83 76
21 21 23 24 25 33 46 60 62 52 40 38 46 53 50 49 49 50 46 39 31 30 34 42 49 53 56 54 52 50 47 43 39 37 34 38 63 84 87 94 94 94 91
30 39 48 49 45 43 47 66 71 67 67 65 60 56 54 53 53 55 49 49 50 46 41 40 41 46 57 62 63 59 55 48 46 40 36 34 45 79 93 96 95 96 94
54 65 68 63 55 58 64 69 73 77 83 87 90 88 83 78 81 79 72 64 62 60 59 53 53 54 54 54 52 53 54 55 51 48 44 38 39 77 100 100 100 100 97
71 69 66 57 55 63 78 89 95 100 100 100 98 96 94 94 98 97 92 85 83 87 84 70 62 54 60 70 78 80 78 81 81 72 63 48 44 57 94 100 100 100 100
62 56 46 41 56 68 75 86 92 96 96 91 86 86 88 93 93 91 89 85 80 90 100 99 86 68 58 60 68 75 79 83 83 78 70 62 59 82 99 100 100 100 98
42 37 26 28 31 42 55 62 58 53 54 56 62 66 68 73 79 83 89 94 94 90 93 99 98 92 83 75 73 74 74 78 83 86 85 72 65 77 95 98 98 94 88
33 21 20 22 26 31 30 28 29 34 37 39 45 51 55 56 61 67 77 81 89 94 96 89 94 100 100 99 92 84 74 75 81 86 91 81 80 83 90 97 97 97 97
18 19 21 23 24 24 26 30 33 35 38 43 47 50 53 55 58 60 61 62 61 60 64 90 100 100 100 100 100 99 86 82 86 89 88 85 87 89 80 76 83 82 96
20 21 23 24 26 28 30 33 37 42 46 48 52 56 58 60 62 64 64 61 58 54 53 54 81 100 100 100 100 95 91 87 89 93 92 88 84 82 82 89 98 100 100

GFSGL_850_rhum_141.txt.gz
RH
88 96 97 91 93 98 97 98 99 100 100 100 100 100 99 100 99 100 78 64 94 93 88 89 80 66 67 90 96 92 86 79 79 77 72 72 71 69 71 73 75 74 74
46 79 97 93 92 97 98 100 95 100 100 100 100 100 99 98 100 100 100 99 100 100 98 97 100 91 81 89 91 95 91 82 77 87 80 81 80 76 74 73 72 74 81
18 19 41 77 92 95 98 97 99 100 96 97 99 100 100 100 100 100 100 100 100 100 100 100 100 100 93 82 98 99 86 91 86 87 86 84 84 83 89 82 81 85 74
11 12 16 20 42 92 99 99 98 98 99 96 96 96 100 100 100 100 100 100 100 100 100 100 99 99 97 97 99 98 97 96 87 80 91 91 93 100 99 99 100 99 94
10 11 12 13 16 17 40 95 96 96 97 97 98 97 97 97 98 100 99 99 99 99 99 100 100 100 100 100 99 100 90 92 96 98 97 100 100 100 100 100 100 99 98
12 13 14 12 10 10 10 14 16 34 63 60 93 100 94 96 99 99 99 97 96 95 97 100 100 99 100 100 98 97 98 100 100 99 99 100 100 100 100 99 100 99 95
16 14 15 13 10 12 11 9 10 16 21 21 22 27 38 46 47 82 98 96 97 96 98 97 98 99 100 100 100 98 95 97 99 99 98 98 97 100 95 96 100 97 98
17 17 15 17 12 10 10 11 14 23 18 16 17 21 19 26 24 20 15 12 25 46 66 72 90 99 100 100 100 98 99 99 98 99 98 99 98 98 98 99 100 97 90
24 22 22 19 21 15 12 12 14 19 17 14 15 13 8 12 8 6 6 8 8 9 9 9 13 20 38 69 85 96 97 96 98 97 98 97 98 98 93 92 90 92 96
28 26 25 22 23 27 24 20 17 14 14 15 11 10 10 9 8 6 5 5 4 6 6 9 12 21 19 16 15 26 51 80 91 93 92 92 91 90 92 92 88 84 86
31 26 24 21 18 27 32 28 21 17 15 14 14 13 10 10 10 8 8 9 8 7 7 8 10 14 16 16 17 16 19 33 30 38 58 74 74 76 79 84 87 88 87
28 23 22 21 22 35 70 77 43 27 24 36 39 42 30 27 16 12 11 11 12 11 12 12 12 13 12 10 10 15 19 18 19 19 20 20 25 32 47 67 77 81 85
24 23 21 17 18 26 65 98 99 96 96 100 100 100 100 81 46 22 22 20 18 17 18 17 14 12 11 10 10 10 10 10 12 14 21 29 33 36 35 36 44 58 76
22 23 22 20 22 24 46 86 98 100 100 100 96 99 100 100 100 88 41 17 17 17 18 16 15 15 15 14 12 11 11 12 13 14 17 23 29 32 38 38 35 35 37
20 19 18 20 24 28 31 41 69 78 92 100 99 88 100 100 100 100 80 71 31 26 22 19 18 19 20 19 18 18 17 15 14 15 15 15 16 20 31 42 60 64 72
18 20 20 22 23 26 33 41 40 43 41 39 43 69 99 100 100 100 88 42 37 33 35 40 48 66 62 45 35 31 27 24 22 20 20 19 20 24 32 68 99 98 99
20 22 23 24 25 26 27 30 32 38 42 42 41 43 46 53 97 100 55 52 48 42 52 78 77 67 88 91 77 61 49 41 35 31 30 26 24 28 38 68 100 100 100
30 31 35 34 31 35 38 41 42 39 34 33 37 41 40 39 38 41 42 45 50 84 98 100 99 78 69 77 63 60 57 54 47 41 37 34 31 34 54 97 100 100 100
39 35 32 32 28 29 34 40 46 49 49 47 44 38 37 40 42 46 50 57 63 79 99 100 100 100 97 88 59 62 64 60 57 55 51 43 39 37 52 96 100 100 100
38 36 33 26 21 22 27 34 37 40 49 60 64 51 41 38 36 38 52 59 67 69 67 97 100 100 75 57 55 52 52 63 68 70 63 56 47 44 57 94 100 100 100
40 36 28 21 21 25 30 39 44 47 48 51 56 59 67 74 75 77 78 79 84 83 74 68 80 86 100 98 65 55 52 50 51 55 63 67 64 61 95 100 100 100 100
38 32 24 20 23 26 31 35 37 36 33 35 38 43 47 50 52 58 58 61 72 88 96 96 94 100 100 100 88 71 62 57 52 55 61 65 67 85 100 100 100 100 100
32 25 20 22 23 26 30 29 28 30 35 39 42 43 43 44 45 48 50 52 53 54 57 69 79 86 89 100 100 99 87 76 64 59 60 66 68 69 76 100 100 100 100
24 19 21 22 25 27 26 27 32 38 41 43 44 45 46 48 51 53 56 55 54 52 52 51 52 72 97 100 100 100 100 90 78 75 78 80 80 79 78 76 79 98 100
19 21 23 24 25 27 30 34 40 42 42 43 44 47 50 54 57 59 61 60 58 55 53 52 51 49 69 94 100 100 100 94 85 81 84 87 87 86 88 87 93 92 100
22 24 25 27 28 32 38 42 43 43 44 47 49 52 55 59 62 64 64 63 61 58 56 55 56 56 74 95 100 100 97 92 86 83 84 86 88 88 92 92 98 100 100

GFSGL_850_rhum_144.txt.gz
RH
15 36 81 91 95 100 94 97 97 94 96 100 99 100 100 100 100 99 100 99 100 100 100 100 99 99 99 100 96 83 80 92 99 83 88 88 68 66 75 82 82 71 67
13 14 26 69 93 100 97 95 96 93 95 97 99 100 100 99 100 100 99 100 98 99 99 99 100 100 100 98 92 85 84 91 97 98 91 87 75 69 62 66 70 76 73
10 11 13 14 32 81 98 97 96 96 95 98 100 99 98 97 100 100 100 99 99 99 99 99 100 99 100 100 97 85 86 81 80 82 98 95 91 94 97 89 84 84 88
16 14 13 12 14 19 30 51 61 90 95 99 99 96 97 100 100 98 99 100 100 99 100 99 98 98 99 100 100 100 99 99 86 70 100 100 99 98 97 100 99 100 100
65 65 49 24 12 12 17 22 18 19 25 47 88 96 95 97 98 99 100 98 98 100 100 99 99 100 98 100 100 100 100 99 100 99 95 100 100 100 100 100 100 100 100
63 66 67 67 61 34 32 27 14 11 10 11 19 21 30 79 97 98 98 99 99 97 97 96 99 98 99 99 100 100 100 100 100 94 100 93 100 99 100 99 100 100 100
70 66 68 68 68 66 77 88 83 28 8 9 11 12 11 13 13 15 36 57 66 80 92 96 98 98 95 97 98 99 99 100 100 100 100 100 100 100 100 98 98 100 99
44 60 60 73 76 71 72 88 94 85 37 22 13 12 11 9 6 9 12 8 10 10 11 16 15 26 75 94 96 97 96 98 97 97 98 98 99 100 98 96 95 98 99
19 18 31 32 45 69 62 87 95 98 92 61 30 19 16 10 7 6 24 20 6 7 6 7 7 6 8 10 19 42 67 92 100 96 99 100 96 98 99 100 99 99 100
25 19 21 33 27 27 89 79 96 100 100 100 72 19 13 13 11 10 13 16 10 8 6 6 6 7 6 5 5 5 7 15 21 38 65 76 82 84 91 90 90 92 96
55 58 25 33 72 72 62 94 89 99 100 100 100 100 98 36 18 13 11 12 12 12 10 9 9 8 6 6 5 5 7 8 7 10 12 15 22 24 30 52 78 84 88
67 51 46 54 88 97 100 98 98 99 100 100 100 100 100 100 98 45 14 13 13 14 16 16 14 12 10 8 7 7 7 6 6 7 7 9 11 16 23 26 37 48 70
58 58 56 60 69 77 84 91 92 95 95 96 95 99 100 100 100 100 84 20 14 13 14 14 13 12 12 11 11 10 9 8 8 8 10 10 13 18 40 23 31 33 48
57 49 53 39 57 65 72 76 86 90 89 93 98 100 100 100 100 100 100 83 30 37 63 34 27 52 30 31 19 16 16 15 14 14 16 16 22 32 58 66 92 91 93
57 54 58 61 61 60 62 55 90 74 75 97 100 100 100 100 100 100 87 96 36 84 100 100 100 97 91 85 72 38 32 30 32 34 26 18 17 26 73 98 100 99 98
57 59 41 72 73 72 72 75 64 45 46 49 92 99 100 100 100 100 100 86 48 90 100 100 100 100 100 99 98 98 94 62 37 50 56 45 48 68 66 94 94 95 90
40 47 66 68 80 83 92 97 97 100 91 73 50 50 50 92 100 100 99 100 100 100 97 99 100 100 99 95 97 98 100 100 100 100 100 99 84 90 96 95 93 92 90
29 28 37 36 45 87 100 100 100 100 100 100 100 72 32 36 91 96 96 100 100 98 95 94 98 98 96 94 100 100 100 100 100 100 100 100 100 100 100 98 94 99 94
48 48 45 56 50 46 100 100 100 100 100 100 100 86 33 33 99 100 100 100 100 100 100 99 100 100 100 100 100 100 100 100 100 100 100 100 100 100 100 100 100 100 99
69 37 27 34 65 97 100 100 100 100 100 100 100 93 23 41 100 100 100 100 100 100 100 100 100 100 100 100 100 100 100 100 100 100 100 100 100 100 100 100 100 100 98
63 42 22 34 39 60 91 92 89 96 100 100 100 87 30 52 100 100 100 100 100 100 100 100 100 100 100 100 100 100 100 100 100 100 100 100 100 100 100 100 100 100 100
32 26 20 22 38 25 22 32 51 75 96 95 97 100 38 100 100 100 100 100 97 100 100 90 69 100 100 100 100 100 100 100 100 100 100 100 100 100 100 100 100 100 100
27 20 19 20 23 21 28 28 39 50 71 91 87 87 74 87 95 100 100 91 99 91 100 66 61 54 74 100 97 100 100 100 100 100 74 68 100 100 100 100 100 100 100
22 18 21 23 20 24 25 41 37 48 43 47 49 59 73 78 100 100 100 99 63 63 55 55 53 56 61 53 68 95 100 100 100 100 84 82 100 100 100 100 100 100 100
19 20 21 22 23 26 32 39 48 55 55 60 71 74 86 87 98 100 94 65 56 56 55 54 58 60 59 56 68 100 100 100 100 98 94 100 100 100 100 100 100 100 100
21 22 23 26 28 32 38 46 53 50 48 55 59 63 70 90 90 74 64 61 59 57 55 58 60 63 66 71 99 100 100 100 100 95 92 100 100 100 100 100 100 100 100

GFSGL_850_rhum_147.txt.gz
RH
11 51 16 17 52 85 91 94 96 98 100 100 98 100 98 99 100 100 100 100 100 100 99 99 98 98 96 99 98 90 92 84 92 83 89 90 96 91 96 94 90 89 85
13 10 9 10 13 22 44 88 98 99 98 97 98 96 95 96 96 98 100 100 100 99 100 100 91 94 100 99 98 97 100 98 94 95 98 91 88 89 86 98 90 88 91
18 16 11 12 13 17 22 25 35 72 94 96 95 94 94 96 97 97 99 100 98 100 98 100 95 99 97 94 92 97 98 97 99 98 98 92 95 81 99 99 97 99 98
71 55 27 21 20 17 17 20 20 26 23 41 85 97 97 95 95 96 98 99 100 100 99 98 100 96 91 93 92 91 87 92 93 100 100 99 92 93 83 99 99 100 100
62 65 71 68 63 42 52 44 20 15 19 34 26 16 31 70 95 97 98 100 99 100 99 100 99 100 100 100 100 100 99 99 100 100 100 100 98 97 85 97 100 100 100
62 62 64 64 68 79 88 93 86 41 16 16 20 12 10 27 44 25 57 88 97 98 98 99 98 99 99 100 100 100 100 98 100 100 100 98 100 100 99 95 99 100 100
66 66 69 71 73 76 78 84 87 87 73 40 34 13 8 7 36 22 7 6 8 11 21 53 85 96 98 98 100 97 94 97 99 100 100 99 99 100 100 93 96 100 99
67 81 82 81 82 84 85 84 91 93 90 85 51 57 11 8 13 51 25 8 7 8 8 8 7 9 19 38 73 92 97 95 98 99 99 100 99 99 100 100 98 100 99
23 17 84 93 93 96 96 94 91 98 100 99 82 19 20 9 8 10 52 39 14 10 8 8 8 6 6 7 8 15 20 27 55 93 93 95 96 98 99 99 98 98 99
50 28 20 72 73 94 100 100 99 97 99 100 100 80 28 14 8 7 11 34 24 21 11 9 8 8 7 6 6 6 7 14 14 13 17 20 18 28 40 53 76 86 96
71 69 60 77 91 98 100 100 100 100 99 95 100 98 96 72 54 16 10 11 24 23 29 20 15 11 8 8 7 7 8 9 12 9 10 10 10 12 15 20 24 39 61
58 58 63 70 75 81 93 95 97 97 98 95 98 99 100 93 88 98 48 20 79 84 70 77 55 40 14 10 9 8 8 8 10 11 11 16 16 22 18 21 32 36 63
48 49 52 52 56 60 66 78 88 90 92 95 94 98 99 100 99 98 100 69 99 100 100 100 100 97 76 27 22 11 9 10 12 12 15 15 20 38 30 33 49 43 94
46 46 48 50 49 56 59 68 80 83 91 94 99 100 100 100 100 100 100 99 100 99 100 100 100 100 100 100 82 50 27 31 46 50 39 32 27 28 26 46 72 75 93
46 48 53 57 55 54 67 53 79 44 34 80 93 100 100 100 100 100 100 100 95 99 99 97 100 100 100 100 100 100 100 90 91 96 79 59 49 52 44 86 87 91 91
49 57 41 70 71 70 72 73 84 85 82 82 68 36 72 100 100 100 95 100 82 96 100 98 99 98 96 96 98 100 100 100 100 100 97 98 96 95 91 92 90 90 88
67 67 79 83 87 91 94 95 95 99 94 95 96 88 33 87 100 100 97 100 100 94 93 95 98 97 92 90 95 95 100 100 100 100 100 100 100 99 96 91 89 91 90
22 25 93 100 100 100 100 100 100 100 100 100 100 95 54 21 100 100 100 100 99 98 95 92 95 95 97 94 97 100 100 100 100 100 100 100 100 100 99 95 93 96 93
90 85 59 97 99 88 100 100 100 100 100 100 100 100 48 29 100 100 100 100 100 100 100 98 100 99 100 100 100 100 100 100 100 100 100 100 100 100 100 98 98 96 93
81 49 23 99 100 100 100 100 99 99 98 100 100 100 44 33 100 100 100 100 100 100 100 100 100 100 100 100 100 100 100 100 100 100 100 100 100 100 98 98 98 98 94
100 100 35 98 100 98 100 99 98 99 100 100 100 100 55 59 100 100 100 100 100 100 100 100 100 100 100 100 100 100 100 100 100 99 100 100 100 100 99 99 99 99 97
78 82 78 69 91 97 42 94 100 100 100 100 100 100 97 100 100 100 100 100 100 100 100 100 100 100 100 100 100 100 100 100 100 100 100 100 100 100 100 100 99 99 100
51 46 64 71 71 55 99 100 100 100 100 100 100 100 100 100 100 100 100 100 100 100 100 100 100 100 100 100 100 100 100 100 100 100 100 100 100 100 100 100 100 100 100
33 29 38 75 44 72 100 100 100 100 100 100 100 100 100 100 100 100 100 100 100 100 96 64 62 100 100 100 100 84 100 100 100 100 100 100 100 100 100 100 100 100 100
26 25 29 57 58 92 100 100 100 100 100 100 100 100 100 100 100 100 100 100 100 89 55 61 100 100 100 80 79 100 100 100 100 100 98 100 100 100 100 100 100 100 100
24 22 26 29 43 54 72 100 100 100 100 97 100 100 100 100 100 100 100 100 85 57 75 95 92 87 74 100 100 100 100 100 99 92 84 94 100 100 100 100 100 100 100

GFSGL_850_rhum_150.txt.gz
RH
9 11 9 12 16 22 18 19 55 85 94 95 100 100 99 96 95 100 98 98 100 100 100 99 100 100 100 97 94 96 100 98 92 84 82 80 71 58 64 50 95 84 80
18 17 19 18 18 15 12 14 15 17 46 82 97 100 99 96 95 94 96 96 98 99 100 100 100 100 100 99 100 99 94 100 99 99 95 79 84 92 96 100 100 100 87
50 52 42 36 30 22 16 13 11 11 13 18 32 92 100 96 92 95 96 96 96 96 98 100 99 100 96 99 99 94 88 87 94 99 97 97 86 96 100 100 85 70 100
66 69 63 62 56 52 41 25 14 13 12 12 19 22 31 46 87 95 96 96 96 96 98 98 100 100 97 100 90 87 89 87 91 91 99 95 100 81 93 96 100 92 87
64 66 67 69 74 79 85 73 35 22 17 17 13 20 34 66 28 15 45 85 96 95 98 99 100 100 98 100 98 98 98 99 100 100 100 100 100 100 100 98 99 99 93
64 68 72 73 76 80 85 89 79 47 26 17 12 12 22 46 84 16 9 11 12 10 15 61 95 99 100 100 98 100 100 100 100 100 100 100 100 100 100 100 100 98 89
72 76 79 80 82 82 85 89 93 87 50 18 14 10 11 16 21 36 8 8 8 8 7 6 9 18 46 88 97 98 98 94 97 95 98 100 99 99 100 100 100 100 99
45 79 86 89 91 84 85 90 95 96 85 43 25 15 10 10 10 13 13 10 8 10 12 13 8 7 10 16 21 32 63 88 95 95 95 98 95 100 97 100 100 100 99
15 19 68 68 66 77 79 92 94 93 96 91 69 38 19 16 8 9 11 14 14 14 19 57 26 16 9 8 10 13 14 17 26 31 40 54 85 95 97 99 99 100 98
53 31 38 57 64 67 94 75 93 89 95 94 92 80 56 28 40 10 16 19 16 18 18 28 74 54 12 7 7 10 12 16 12 11 10 12 10 14 17 33 58 94 96
65 71 65 79 84 89 92 93 91 89 82 92 95 93 79 59 57 96 52 38 62 52 51 55 76 90 46 10 10 14 22 15 10 10 9 11 11 16 24 29 49 62 44
56 60 58 60 66 76 74 89 94 90 94 87 84 94 89 61 61 59 98 100 99 84 84 97 100 99 37 26 15 17 15 13 12 11 11 12 12 16 35 49 89 100 93
49 50 52 50 54 60 67 56 50 86 86 95 96 85 93 62 44 30 31 64 91 98 99 86 93 90 74 55 46 26 16 23 26 20 22 28 34 44 32 35 56 85 93
46 48 50 38 52 43 45 54 30 27 37 41 62 91 90 60 53 39 41 69 86 97 100 99 84 86 80 72 76 68 56 68 78 63 52 44 35 31 44 59 64 71 77
47 52 57 62 58 62 63 71 81 78 79 75 70 53 40 65 93 99 90 73 87 98 100 93 87 90 99 92 80 91 78 66 89 83 75 57 58 58 76 71 71 74 79
52 53 42 69 74 72 80 85 91 92 92 92 90 84 67 42 100 100 100 100 96 94 87 92 86 89 94 100 91 89 97 93 88 93 85 74 68 84 89 90 90 78 85
55 61 75 63 86 91 96 93 98 99 95 93 100 94 76 23 100 100 100 100 100 95 89 94 88 90 95 99 98 89 86 89 84 91 89 90 78 88 89 84 88 80 75
19 20 52 70 65 77 96 93 91 89 95 100 100 95 87 33 91 100 100 79 80 89 91 100 96 96 93 92 93 99 100 96 85 76 80 80 77 83 88 84 86 82 79
68 39 22 49 64 67 96 94 94 95 91 98 95 96 68 36 100 100 100 92 93 98 96 96 98 94 96 99 96 87 96 100 100 94 88 82 76 80 89 84 81 80 85
51 53 22 40 68 83 96 95 96 95 94 99 99 96 73 40 99 98 100 100 91 100 100 100 100 100 100 100 98 99 90 88 99 100 100 94 76 83 92 87 82 90 85
100 83 43 77 80 58 57 86 87 96 99 97 100 99 96 82 100 100 100 100 98 100 100 100 100 100 100 100 100 100 96 96 96 100 100 94 82 89 95 85 86 83 86
52 55 47 39 60 58 35 69 88 94 100 98 100 100 100 100 99 100 100 100 100 98 100 99 95 98 100 100 98 94 100 98 98 100 100 92 86 92 95 90 90 94 91
40 37 45 50 45 49 90 100 100 95 88 100 100 100 100 100 100 100 100 100 93 83 86 70 59 68 100 96 89 94 85 95 99 100 100 95 93 99 97 97 98 95 96
38 30 35 44 34 42 64 62 100 100 100 100 100 100 100 100 100 100 100 100 91 78 60 53 62 96 96 76 71 78 100 100 100 100 98 95 92 97 100 100 97 98 94
34 28 26 40 45 54 72 92 95 100 100 100 100 100 100 100 99 100 96 86 82 65 60 60 80 77 74 79 95 100 100 100 99 98 93 79 80 100 100 100 100 99 96
33 26 27 30 38 46 63 87 98 100 100 85 84 98 88 74 82 76 70 83 61 57 53 60 66 70 84 93 100 100 100 98 93 76 67 76 100 100 100 100 99 97 94

GFSGL_850_rhum_153.txt.gz
RH
14 15 13 11 11 8 8 10 14 16 12 16 68 90 93 100 99 94 91 92 94 98 98 100 100 100 100 100 100 100 99 99 97 93 91 83 79 78 76 70 65 75 73
41 38 28 24 19 15 12 12 11 12 9 12 13 26 72 94 100 97 93 95 95 93 96 96 97 98 100 99 100 100 100 100 100 99 97 93 92 96 98 97 85 92 92
64 57 49 46 38 40 35 25 15 12 9 9 12 12 8 13 36 97 99 93 91 94 95 96 96 95 100 98 100 100 100 100 99 100 99 100 99 100 100 100 100 100 100
65 63 65 66 62 70 66 53 30 17 9 8 13 18 13 15 12 12 33 85 96 94 95 96 96 95 96 98 100 99 100 100 93 100 99 100 99 100 100 100 100 97 96
62 65 66 70 75 85 87 87 57 19 11 7 8 11 19 40 43 11 12 8 8 21 65 88 95 96 97 96 100 100 100 99 99 100 99 100 99 99 99 98 100 100 100
59 67 70 66 70 86 89 92 74 42 16 9 7 7 12 30 39 19 10 14 11 10 7 12 18 30 93 96 97 100 100 100 99 100 100 100 100 100 100 100 100 100 100
64 65 72 67 63 74 88 91 80 65 44 27 14 12 16 23 17 14 14 10 20 22 17 9 10 17 26 27 62 90 94 98 99 98 98 100 100 100 100 100 100 100 98
49 50 64 64 58 66 77 82 83 88 79 60 40 26 27 66 28 20 17 17 17 38 57 35 16 10 12 14 15 16 18 27 46 82 95 98 99 100 100 100 100 100 100
17 23 38 36 42 56 60 72 73 88 96 88 70 44 29 53 100 49 27 29 32 36 55 98 54 24 20 11 9 11 17 24 28 25 32 39 47 82 96 100 97 95 95
41 32 39 48 47 60 72 71 74 82 99 98 88 69 37 24 78 100 62 60 53 57 62 75 100 87 13 8 7 9 10 14 13 13 15 25 37 66 48 39 49 56 92
48 50 47 63 74 67 80 82 82 89 83 89 83 63 42 29 29 98 100 81 93 94 82 80 96 100 81 20 18 18 20 14 12 11 13 17 22 52 92 97 100 95 88
51 50 41 53 65 56 46 53 54 65 73 73 67 49 37 27 22 53 87 88 96 94 97 98 93 79 58 40 28 25 18 13 11 11 12 17 28 35 72 96 91 94 97
49 47 47 42 49 42 32 20 18 22 26 22 22 20 22 26 28 46 73 90 97 97 92 97 100 93 74 54 50 33 24 23 21 16 24 37 46 43 38 37 49 65 76
46 46 47 43 50 50 44 48 59 50 53 56 52 40 20 17 36 41 63 76 90 100 100 91 94 97 89 80 67 56 51 41 39 38 34 35 34 33 34 34 28 29 31
44 46 48 53 54 58 66 74 85 80 76 79 76 73 52 26 80 94 100 100 100 92 88 80 82 89 98 94 88 85 81 72 57 51 40 33 34 36 38 38 35 33 51
42 46 49 54 61 63 71 88 93 93 90 91 90 88 78 30 100 100 100 100 100 84 70 84 84 89 94 98 100 100 97 90 77 67 61 50 44 56 54 49 39 39 55
41 39 40 46 54 65 82 95 96 94 95 99 98 95 90 57 100 100 100 77 84 68 66 79 84 86 88 89 90 98 100 100 100 90 82 72 54 53 66 58 54 52 53
44 31 25 29 37 44 66 87 93 94 100 100 100 100 94 60 100 100 90 65 44 54 73 83 84 82 86 92 94 92 97 98 100 100 100 89 75 63 70 65 62 65 58
18 33 22 16 30 40 66 90 93 93 95 100 100 96 76 49 87 90 77 72 70 59 69 76 83 82 80 80 83 86 88 95 100 100 100 96 81 70 76 81 73 63 59
24 32 25 20 28 49 67 80 89 91 93 93 93 86 78 57 65 81 77 82 76 62 60 64 71 76 83 78 72 69 73 83 99 100 100 100 84 69 76 82 78 78 92
49 46 40 31 34 37 47 58 67 78 89 95 89 88 86 86 90 92 84 85 77 66 60 58 60 63 68 64 66 57 65 90 100 100 100 100 88 74 76 79 81 81 84
63 56 40 37 32 34 42 38 54 68 78 88 96 99 94 92 91 90 94 89 84 76 60 57 56 60 71 70 65 62 68 82 98 100 98 89 87 81 78 74 76 81 76
62 46 39 36 38 40 52 68 70 79 84 73 81 94 91 89 92 88 83 85 78 62 61 55 55 66 70 66 75 73 89 84 100 100 95 92 91 79 73 81 89 84 77
44 41 35 33 40 37 48 64 60 65 81 90 88 89 84 81 84 74 70 64 59 57 51 47 53 56 60 68 81 92 92 90 96 100 100 88 68 71 86 89 84 82 83
45 35 33 28 28 35 40 50 67 78 79 80 76 72 67 74 68 62 56 50 52 49 48 54 59 64 67 78 87 94 96 95 97 83 64 60 66 70 80 85 87 86 92
42 33 28 27 28 32 37 46 54 61 65 65 64 49 50 53 47 46 47 52 52 53 61 73 74 79 83 90 100 95 97 94 71 63 60 65 68 84 90 93 94 94 94